GW0819 Weather Reports


Display with metric or nautical units.
time (UTC)temp
F
wind
direction
speed
MPH
gust
MPH
rain 1hr
in
rain 24hr
in
rain mn
in
humidity
%
barometer
mb
20260831011555 90 164 11.0 15.0 0.00 0.00 0.00 27 1012.2
20260831011050 90 160 18.0 20.0 0.00 0.00 0.00 27 1012.1
20260831010546 91 160 17.0 18.0 0.00 0.00 0.00 27 1012.2
20260831010042 91 152 10.0 19.0 0.00 0.00 0.00 27 1012.3
20260831005537 91 152 18.0 23.0 0.00 0.00 0.00 27 1012.2
20260831005036 92 144 15.0 22.0 0.00 0.00 0.00 27 1012.2
20260831004533 92 147 13.0 18.0 0.00 0.00 0.00 26 1011.8
20260831004028 92 161 17.0 22.0 0.00 0.00 0.00 26 1012.1
20260831003524 93 164 13.0 17.0 0.00 0.00 0.00 26 1012.2
20260831003020 93 160 15.0 22.0 0.00 0.00 0.00 26 1012.3
20260831002518 93 154 15.0 19.0 0.00 0.00 0.00 26 1012.1
20260831002014 93 171 17.0 20.0 0.00 0.00 0.00 26 1012.0
20260831001509 93 160 11.0 20.0 0.00 0.00 0.00 25 1011.8
20260831001005 93 150 12.0 19.0 0.00 0.00 0.00 25 1012.0
20260831000501 93 140 13.0 16.0 0.00 0.00 0.00 26 1012.0
20260830235959 94 151 17.0 26.0 0.00 0.00 0.00 25 1012.0
20260830235455 94 199 14.0 17.0 0.00 0.00 0.00 24 1012.0
20260830234949 95 168 13.0 17.0 0.00 0.00 0.00 24 1011.6
20260830234444 95 167 16.0 16.0 0.00 0.00 0.00 24 1012.3
20260830233940 95 188 14.0 24.0 0.00 0.00 0.00 24 1012.0
20260830233435 95 141 20.0 27.0 0.00 0.00 0.00 25 1012.0
20260830232931 95 157 13.0 17.0 0.00 0.00 0.00 25 1012.0
20260830232427 95 181 9.0 16.0 0.00 0.00 0.00 25 1011.8
20260830231923 95 202 12.0 20.0 0.00 0.00 0.00 25 1011.8
20260830231418 95 160 11.0 18.0 0.00 0.00 0.00 25 1012.1
20260830230918 94 157 11.0 14.0 0.00 0.00 0.00 26 1012.1
20260830230413 94 168 13.0 17.0 0.00 0.00 0.00 25 1011.8
20260830225912 94 243 5.0 7.0 0.00 0.00 0.00 25 1012.1
20260830225408 94 185 8.0 17.0 0.00 0.00 0.00 25 1011.8
20260830224902 94 202 11.0 13.0 0.00 0.00 0.00 25 1011.8
20260830224401 95 202 11.0 14.0 0.00 0.00 0.00 24 1012.0
20260830223858 96 171 11.0 14.0 0.00 0.00 0.00 23 1012.0
20260830223354 97 156 11.0 13.0 0.00 0.00 0.00 23 1012.1
20260830222853 96 211 15.0 15.0 0.00 0.00 0.00 24 1012.1
20260830222349 96 158 3.0 7.0 0.00 0.00 0.00 24 1012.2
20260830221844 96 159 13.0 17.0 0.00 0.00 0.00 24 1012.0
20260830221341 95 203 12.0 14.0 0.00 0.00 0.00 24 1011.8
20260830220836 95 175 13.0 15.0 0.00 0.00 0.00 24 1012.1
20260830220335 96 179 11.0 18.0 0.00 0.00 0.00 24 1012.1
20260830215834 97 191 13.0 15.0 0.00 0.00 0.00 23 1012.0
20260830215328 98 194 7.0 14.0 0.00 0.00 0.00 23 1012.2
20260830214823 98 206 15.0 19.0 0.00 0.00 0.00 23 1012.3
20260830214318 98 210 11.0 13.0 0.00 0.00 0.00 23 1012.3
20260830213818 98 173 8.0 14.0 0.00 0.00 0.00 23 1012.2
20260830213313 97 200 9.0 18.0 0.00 0.00 0.00 24 1012.6
20260830212809 96 216 5.0 7.0 0.00 0.00 0.00 24 1012.6
20260830212306 95 236 5.0 12.0 0.00 0.00 0.00 25 1012.8
20260830211803 95 210 9.0 12.0 0.00 0.00 0.00 24 1012.8
20260830211303 95 232 4.0 10.0 0.00 0.00 0.00 24 1012.8
20260830210759 96 212 5.0 8.0 0.00 0.00 0.00 24 1012.8
20260830210258 96 192 3.0 5.0 0.00 0.00 0.00 24 1012.6
20260830205755 95 114 4.0 13.0 0.00 0.00 0.00 25 1012.8
20260830205250 96 226 2.0 6.0 0.00 0.00 0.00 24 1013.0
20260830204746 95 266 9.0 12.0 0.00 0.00 0.00 25 1013.1
20260830204244 95 245 10.0 11.0 0.00 0.00 0.00 24 1013.3
20260830203741 97 252 14.0 19.0 0.00 0.00 0.00 23 1013.2
20260830203236 96 232 11.0 13.0 0.00 0.00 0.00 24 1013.2
20260830202736 95 264 8.0 13.0 0.00 0.00 0.00 25 1013.3
20260830202231 94 233 8.0 18.0 0.00 0.00 0.00 26 1013.4
20260830201730 95 210 9.0 11.0 0.00 0.00 0.00 25 1013.2
20260830201226 95 232 13.0 16.0 0.00 0.00 0.00 25 1013.6
20260830200721 94 249 7.0 13.0 0.00 0.00 0.00 25 1013.3
20260830200220 97 228 14.0 19.0 0.00 0.00 0.00 24 1013.8
20260830195716 95 186 2.0 16.0 0.00 0.00 0.00 24 1013.8
20260830195214 95 116 0.0 10.0 0.00 0.00 0.00 25 1013.9
20260830194713 95 267 7.0 17.0 0.00 0.00 0.00 25 1014.1
20260830194208 95 228 19.0 20.0 0.00 0.00 0.00 25 1013.9
20260830193707 95 178 3.0 10.0 0.00 0.00 0.00 25 1013.9
20260830193202 94 150 3.0 7.0 0.00 0.00 0.00 25 1014.0
20260830192658 95 192 5.0 13.0 0.00 0.00 0.00 25 1014.0
20260830192152 94 262 8.0 18.0 0.00 0.00 0.00 25 1014.0
20260830191644 94 229 11.0 16.0 0.00 0.00 0.00 25 1014.0
20260830191137 94 265 15.0 21.0 0.00 0.00 0.00 25 1013.9
20260830190633 94 245 18.0 19.0 0.00 0.00 0.00 26 1014.1
20260830190128 93 293 11.0 19.0 0.00 0.00 0.00 26 1014.5
20260830185626 95 245 10.0 14.0 0.00 0.00 0.00 25 1014.1
20260830185122 94 252 11.0 17.0 0.00 0.00 0.00 26 1014.2
20260830184621 94 279 12.0 16.0 0.00 0.00 0.00 26 1014.1
20260830184116 95 244 11.0 20.0 0.00 0.00 0.00 25 1014.3
20260830183611 94 231 19.0 24.0 0.00 0.00 0.00 26 1014.5
20260830183107 95 256 15.0 19.0 0.00 0.00 0.00 26 1014.5
20260830182602 93 216 12.0 18.0 0.00 0.00 0.00 27 1014.6
20260830182058 93 252 13.0 14.0 0.00 0.00 0.00 27 1014.7
20260830181554 93 225 15.0 23.0 0.00 0.00 0.00 26 1015.0
20260830181053 93 262 8.0 21.0 0.00 0.00 0.00 27 1014.7
20260830180552 94 241 19.0 27.0 0.00 0.00 0.00 26 1015.0
20260830180052 92 254 9.0 20.0 0.00 0.00 0.00 28 1015.0
20260830175551 94 259 17.0 22.0 0.00 0.00 0.00 27 1015.0
20260830175046 93 248 16.0 26.0 0.00 0.00 0.00 26 1015.1
20260830174542 92 239 18.0 23.0 0.00 0.00 0.00 28 1015.1
20260830174037 91 245 14.0 22.0 0.00 0.00 0.00 28 1015.3
20260830173533 92 246 11.0 17.0 0.00 0.00 0.00 28 1015.5
20260830173027 92 245 14.0 25.0 0.00 0.00 0.00 29 1015.1
20260830172524 92 263 12.0 21.0 0.00 0.00 0.00 27 1015.5
20260830172020 91 212 10.0 15.0 0.00 0.00 0.00 32 1015.5
20260830171520 92 227 16.0 18.0 0.00 0.00 0.00 32 1015.5
20260830171020 90 179 5.0 16.0 0.00 0.00 0.00 34 1015.7
20260830170515 89 206 15.0 20.0 0.00 0.00 0.00 35 1015.8
20260830170014 89 192 9.0 21.0 0.00 0.00 0.00 35 1015.7
20260830165509 89 235 12.0 15.0 0.00 0.00 0.00 34 1015.8
20260830165005 88 220 14.0 20.0 0.00 0.00 0.00 36 1015.7
20260830164502 89 214 13.0 16.0 0.00 0.00 0.00 37 1015.9
20260830163957 87 204 12.0 21.0 0.00 0.00 0.00 38 1015.8
20260830163454 87 207 7.0 21.0 0.00 0.00 0.00 38 1016.0
20260830162953 88 198 10.0 18.0 0.00 0.00 0.00 39 1015.9
20260830162449 87 219 14.0 19.0 0.00 0.00 0.00 39 1015.8
20260830161949 87 195 14.0 18.0 0.00 0.00 0.00 39 1016.0
20260830161443 87 193 13.0 22.0 0.00 0.00 0.00 40 1015.6
20260830160938 86 222 18.0 20.0 0.00 0.00 0.00 40 1015.7
20260830160435 86 225 13.0 18.0 0.00 0.00 0.00 40 1015.7
20260830155929 87 235 11.0 22.0 0.00 0.00 0.00 39 1015.7
20260830155426 86 216 19.0 22.0 0.00 0.00 0.00 41 1015.9
20260830154920 85 213 15.0 19.0 0.00 0.00 0.00 42 1015.8
20260830154416 85 238 11.0 20.0 0.00 0.00 0.00 42 1016.0
20260830153913 85 243 18.0 20.0 0.00 0.00 0.00 42 1015.4
20260830153408 84 229 13.0 22.0 0.00 0.00 0.00 44 1015.8
20260830152907 83 242 17.0 22.0 0.00 0.00 0.00 44 1015.7
20260830152402 83 217 11.0 17.0 0.00 0.00 0.00 47 1015.4
20260830151856 82 228 15.0 20.0 0.00 0.00 0.00 47 1015.4
20260830151355 81 223 17.0 20.0 0.00 0.00 0.00 49 1015.7
20260830150851 81 233 17.0 20.0 0.00 0.00 0.00 48 1015.8
20260830150350 80 236 17.0 22.0 0.00 0.00 0.00 50 1015.9
20260830145845 80 233 18.0 21.0 0.00 0.00 0.00 51 1015.8
20260830145339 80 236 17.0 22.0 0.00 0.00 0.00 52 1015.9
20260830144835 79 210 15.0 19.0 0.00 0.00 0.00 53 1016.0
20260830144331 78 220 17.0 21.0 0.00 0.00 0.00 54 1015.7
20260830143827 78 217 15.0 17.0 0.00 0.00 0.00 55 1015.9
20260830143326 77 227 14.0 17.0 0.00 0.00 0.00 56 1015.8
20260830142820 77 190 11.0 19.0 0.00 0.00 0.00 55 1016.0
20260830142315 78 199 14.0 15.0 0.00 0.00 0.00 55 1016.2
20260830141811 76 223 13.0 18.0 0.00 0.00 0.00 57 1015.9
20260830141305 76 230 13.0 24.0 0.00 0.00 0.00 57 1016.3
20260830140801 76 220 17.0 22.0 0.00 0.00 0.00 57 1016.2
20260830140255 76 230 12.0 20.0 0.00 0.00 0.00 57 1016.0
20260830135750 76 226 17.0 20.0 0.00 0.00 0.00 58 1015.9
20260830135245 75 225 16.0 20.0 0.00 0.00 0.00 58 1016.0
20260830134741 75 222 17.0 18.0 0.00 0.00 0.00 58 1015.9
20260830134235 75 234 14.0 18.0 0.00 0.00 0.00 58 1016.0
20260830133731 75 225 15.0 19.0 0.00 0.00 0.00 59 1015.9
20260830133227 74 227 13.0 18.0 0.00 0.00 0.00 59 1015.8
20260830132722 74 227 12.0 17.0 0.00 0.00 0.00 60 1015.7
20260830132218 74 225 12.0 15.0 0.00 0.00 0.00 60 1015.6
20260830131717 74 231 10.0 17.0 0.00 0.00 0.00 60 1015.8
20260830131212 73 220 12.0 16.0 0.00 0.00 0.00 60 1015.7
20260830130707 73 214 11.0 16.0 0.00 0.00 0.00 60 1015.9
20260830130206 73 214 13.0 15.0 0.00 0.00 0.00 60 1015.7
20260830125706 73 228 11.0 14.0 0.00 0.00 0.00 60 1015.5
20260830125201 73 228 9.0 15.0 0.00 0.00 0.00 60 1015.7
20260830124659 73 225 9.0 10.0 0.00 0.00 0.00 60 1015.6
20260830124154 73 221 9.0 12.0 0.00 0.00 0.00 60 1015.6
20260830123651 73 218 10.0 12.0 0.00 0.00 0.00 60 1015.4
20260830123147 72 232 11.0 13.0 0.00 0.00 0.00 60 1015.4
20260830122644 72 223 8.0 12.0 0.00 0.00 0.00 61 1015.1
20260830122139 72 225 11.0 15.0 0.00 0.00 0.00 60 1015.5
20260830121635 72 220 9.0 13.0 0.00 0.00 0.00 60 1015.4
20260830121134 73 225 13.0 15.0 0.00 0.00 0.00 59 1015.4
20260830120629 73 226 12.0 13.0 0.00 0.00 0.00 58 1015.4
20260830120126 73 227 10.0 12.0 0.00 0.00 0.00 58 1015.5
20260830115622 73 227 10.0 13.0 0.00 0.00 0.00 58 1015.4
20260830115117 73 229 10.0 14.0 0.00 0.00 0.00 58 1015.3
20260830114614 73 229 11.0 15.0 0.00 0.00 0.00 57 1015.6
20260830114113 73 227 10.0 14.0 0.00 0.00 0.00 57 1015.6
20260830113608 73 226 9.0 13.0 0.00 0.00 0.00 57 1015.5
20260830113103 73 223 8.0 15.0 0.00 0.00 0.00 56 1015.5
20260830112600 73 222 10.0 13.0 0.00 0.00 0.00 56 1015.3
20260830112056 73 215 10.0 14.0 0.00 0.00 0.00 56 1015.1
20260830111551 73 221 9.0 13.0 0.00 0.00 0.00 56 1015.4
20260830111047 73 229 13.0 14.0 0.00 0.00 0.00 56 1015.5
20260830110546 73 230 7.0 13.0 0.00 0.00 0.00 56 1015.4
20260830110042 73 231 8.0 10.0 0.00 0.00 0.00 55 1015.6
20260830105537 73 225 11.0 13.0 0.00 0.00 0.00 55 1015.8
20260830105032 74 233 12.0 17.0 0.00 0.00 0.00 54 1015.6
20260830104524 73 246 10.0 15.0 0.00 0.00 0.00 54 1015.8
20260830104019 74 236 13.0 15.0 0.00 0.00 0.00 54 1015.9
20260830103514 74 230 12.0 16.0 0.00 0.00 0.00 53 1015.8
20260830103013 74 231 12.0 14.0 0.00 0.00 0.00 53 1015.5
20260830102508 75 234 12.0 20.0 0.00 0.00 0.00 52 1015.6
20260830102004 74 232 10.0 15.0 0.00 0.00 0.00 52 1015.7
20260830101459 75 235 11.0 13.0 0.00 0.00 0.00 51 1015.5
20260830100959 75 231 10.0 13.0 0.00 0.00 0.00 51 1015.4
20260830100458 75 222 12.0 14.0 0.00 0.00 0.00 51 1015.6
20260830095956 75 217 13.0 15.0 0.00 0.00 0.00 50 1015.3
20260830095453 75 213 9.0 13.0 0.00 0.00 0.00 51 1015.1
20260830094948 75 223 11.0 15.0 0.00 0.00 0.00 50 1015.4
20260830094444 75 217 10.0 14.0 0.00 0.00 0.00 50 1015.1
20260830093940 75 228 12.0 16.0 0.00 0.00 0.00 50 1015.5
20260830093435 74 228 11.0 15.0 0.00 0.00 0.00 51 1015.4
20260830092931 74 226 10.0 13.0 0.00 0.00 0.00 51 1015.0
20260830092426 73 234 9.0 11.0 0.00 0.00 0.00 51 1015.0
20260830091923 73 224 7.0 8.0 0.00 0.00 0.00 51 1014.9
20260830091423 73 220 6.0 7.0 0.00 0.00 0.00 51 1015.3
20260830090921 73 208 6.0 7.0 0.00 0.00 0.00 51 1015.1
20260830090417 73 216 4.0 6.0 0.00 0.00 0.00 51 1015.1
20260830085912 73 228 6.0 9.0 0.00 0.00 0.00 50 1015.6
20260830085407 74 228 7.0 10.0 0.00 0.00 0.00 49 1015.1
20260830084903 75 215 10.0 11.0 0.00 0.00 0.00 48 1015.0
20260830084357 75 219 10.0 13.0 0.00 0.00 0.00 48 1015.4
20260830083853 75 211 11.0 13.0 0.00 0.00 0.00 47 1015.3
20260830083349 75 217 12.0 14.0 0.00 0.00 0.00 47 1015.3
20260830082848 76 213 13.0 14.0 0.00 0.00 0.00 47 1015.3
20260830082343 76 207 8.0 12.0 0.00 0.00 0.00 46 1015.0
20260830081838 76 217 10.0 15.0 0.00 0.00 0.00 46 1015.0
20260830081332 76 203 12.0 14.0 0.00 0.00 0.00 46 1015.0
20260830080827 76 204 10.0 13.0 0.00 0.00 0.00 46 1014.9
20260830080326 76 204 11.0 13.0 0.00 0.00 0.00 46 1015.1
20260830075822 76 203 9.0 15.0 0.00 0.00 0.00 46 1015.1
20260830075318 76 213 11.0 12.0 0.00 0.00 0.00 46 1015.3
20260830074813 76 203 8.0 11.0 0.00 0.00 0.00 46 1015.4
20260830074309 76 213 10.0 13.0 0.00 0.00 0.00 46 1015.3
20260830073805 76 202 9.0 11.0 0.00 0.00 0.00 46 1015.1
20260830073300 76 207 9.0 13.0 0.00 0.00 0.00 45 1015.5
20260830072754 76 207 10.0 12.0 0.00 0.00 0.00 45 1015.3
20260830072250 76 205 9.0 11.0 0.00 0.00 0.00 46 1015.5
20260830071744 76 198 9.0 13.0 0.00 0.00 0.00 46 1015.4
20260830071244 76 200 9.0 11.0 0.00 0.00 0.00 46 1015.4
20260830070743 77 201 12.0 12.0 0.00 0.00 0.00 46 1015.4
20260830070238 77 203 7.0 12.0 0.00 0.00 0.00 45 1015.5
20260830065737 77 212 9.0 13.0 0.00 0.00 0.00 45 1015.5
20260830065231 77 203 12.0 14.0 0.00 0.00 0.00 45 1015.3
20260830064730 77 213 9.0 13.0 0.00 0.00 0.00 44 1015.6
20260830064225 77 203 13.0 14.0 0.00 0.00 0.00 44 1015.6
20260830063720 77 195 10.0 14.0 0.00 0.00 0.00 44 1015.6
20260830063219 78 191 11.0 13.0 0.00 0.00 0.00 44 1015.7
20260830062714 78 192 9.0 15.0 0.00 0.00 0.00 43 1015.7
20260830062209 78 190 14.0 18.0 0.00 0.00 0.00 43 1015.5
20260830061708 79 194 13.0 17.0 0.00 0.00 0.00 42 1015.7
20260830061204 79 191 14.0 19.0 0.00 0.00 0.00 42 1015.7
20260830060701 79 199 12.0 17.0 0.00 0.00 0.00 41 1015.8
20260830060157 80 179 10.0 19.0 0.00 0.00 0.00 41 1015.4
20260830055652 80 167 12.0 17.0 0.00 0.00 0.00 41 1015.5
20260830055149 80 165 11.0 17.0 0.00 0.00 0.00 41 1015.4
20260830054643 80 165 15.0 17.0 0.00 0.00 0.00 41 1015.4
20260830054138 80 181 11.0 19.0 0.00 0.00 0.00 40 1015.6
20260830053635 80 182 11.0 17.0 0.00 0.00 0.00 40 1015.6
20260830053133 80 191 10.0 19.0 0.00 0.00 0.00 40 1015.6
20260830052629 80 176 13.0 20.0 0.00 0.00 0.00 40 1015.4
20260830052124 80 173 9.0 17.0 0.00 0.00 0.00 40 1015.6
20260830051618 80 178 10.0 16.0 0.00 0.00 0.00 40 1015.8
20260830051115 80 171 12.0 17.0 0.00 0.00 0.00 40 1015.6
20260830050613 80 172 11.0 18.0 0.00 0.00 0.00 40 1015.4
20260830050109 80 169 12.0 18.0 0.00 0.00 0.00 40 1015.4
20260830045607 81 171 13.0 21.0 0.00 0.00 0.00 39 1015.4
20260830045103 81 181 10.0 18.0 0.00 0.00 0.00 39 1015.5
20260830044601 81 172 12.0 17.0 0.00 0.00 0.00 39 1015.5
20260830044056 81 169 16.0 20.0 0.00 0.00 0.00 39 1015.5
20260830043552 81 177 17.0 19.0 0.00 0.00 0.00 38 1015.3
20260830043051 81 176 11.0 19.0 0.00 0.00 0.00 38 1015.6
20260830042549 82 178 12.0 19.0 0.00 0.00 0.00 38 1015.1
20260830042044 82 180 13.0 19.0 0.00 0.00 0.00 37 1015.1
20260830041543 82 172 16.0 17.0 0.00 0.00 0.00 37 1015.3
20260830041042 82 162 17.0 18.0 0.00 0.00 0.00 37 1015.4
20260830040538 83 177 9.0 19.0 0.00 0.00 0.00 36 1015.5
20260830040034 83 160 12.0 18.0 0.00 0.00 0.00 36 1015.3
20260830035531 83 161 16.0 19.0 0.00 0.00 0.00 35 1015.1
20260830035027 84 174 15.0 21.0 0.00 0.00 0.00 35 1014.9
20260830034523 84 170 13.0 20.0 0.00 0.00 0.00 35 1015.0
20260830034021 84 167 13.0 16.0 0.00 0.00 0.00 35 1014.9
20260830033517 84 167 12.0 16.0 0.00 0.00 0.00 35 1014.8
20260830033012 84 164 12.0 19.0 0.00 0.00 0.00 35 1014.8
20260830032512 84 192 15.0 19.0 0.00 0.00 0.00 35 1014.7
20260830032007 85 160 18.0 24.0 0.00 0.00 0.00 34 1015.0
20260830031502 85 160 19.0 24.0 0.00 0.00 0.00 34 1014.6
20260830030957 85 156 13.0 23.0 0.00 0.00 0.00 34 1014.6
20260830030453 85 165 16.0 22.0 0.00 0.00 0.00 34 1014.6
20260830025952 86 164 14.0 24.0 0.00 0.00 0.00 34 1014.1
20260830025447 86 165 15.0 23.0 0.00 0.00 0.00 34 1014.1
20260830024946 86 170 21.0 23.0 0.00 0.00 0.00 34 1014.5
20260830024441 86 158 17.0 22.0 0.00 0.00 0.00 34 1014.1
20260830023939 86 158 15.0 23.0 0.00 0.00 0.00 34 1013.9
20260830023437 86 159 19.0 21.0 0.00 0.00 0.00 33 1014.0
20260830022937 86 157 22.0 22.0 0.00 0.00 0.00 34 1014.0
20260830022432 87 160 18.0 24.0 0.00 0.00 0.00 33 1013.9
20260830021928 87 163 12.0 22.0 0.00 0.00 0.00 33 1013.7
20260830021427 87 158 16.0 23.0 0.00 0.00 0.00 33 1013.7
20260830020922 87 156 14.0 24.0 0.00 0.00 0.00 32 1013.6
20260830020416 88 163 15.0 22.0 0.00 0.00 0.00 32 1013.4
20260830015912 88 175 15.0 24.0 0.00 0.00 0.00 32 1013.4
20260830015407 88 159 18.0 20.0 0.00 0.00 0.00 32 1013.2
20260830014902 89 162 15.0 24.0 0.00 0.00 0.00 31 1013.3
20260830014358 89 159 15.0 22.0 0.00 0.00 0.00 31 1013.3
20260830013854 89 183 12.0 22.0 0.00 0.00 0.00 31 1013.1
20260830013349 89 154 15.0 23.0 0.00 0.00 0.00 31 1013.1
20260830012844 90 169 23.0 27.0 0.00 0.00 0.00 31 1013.0
20260830012340 90 168 13.0 22.0 0.00 0.00 0.00 30 1013.1
20260830011836 90 154 16.0 18.0 0.00 0.00 0.00 30 1012.9